Theta_e
315 315 314 314 314 315 314 313 313 313 314 314 314 314 314 314 314 314 315 314 315 315 315 316 317 318 315 303 304 316 341 340 328 318 313 310 305 302 299 301 303 301 302 302 302 299 300
315 315 315 315 314 314 313 313 312 313 313 313 313 313 313 313 313 313 314 314 314 314 314 315 317 318 306 296 309 313 319 326 322 315 312 311 308 308 303 302 302 304 301 301 299 297 298
316 315 315 315 314 314 313 313 313 313 313 312 312 312 312 312 312 312 313 313 312 313 314 316 317 316 306 298 308 317 322 316 318 316 311 312 311 308 305 302 304 301 298 300 299 298 297
318 317 316 314 314 314 314 313 313 312 312 313 312 312 312 311 311 311 311 312 312 313 315 317 318 313 299 308 309 306 307 311 315 317 313 313 311 308 306 306 303 298 295 292 297 299 300
315 316 317 317 315 314 312 312 313 312 312 312 312 312 311 311 311 311 311 311 312 313 320 320 312 305 297 311 310 310 309 308 313 314 313 316 308 304 302 298 296 296 292 293 296 299 298
313 313 314 315 316 316 314 312 311 313 312 312 312 312 312 311 311 311 311 310 310 312 319 319 315 298 298 298 307 311 311 313 310 310 308 306 301 298 295 293 289 291 292 294 294 297 296
311 311 312 312 314 314 315 315 314 312 312 312 312 312 311 311 310 310 306 299 299 302 307 299 297 298 302 308 309 309 314 312 310 305 299 300 296 293 295 297 298 297 294 294 297 299 296
311 310 310 310 311 313 313 314 314 314 313 312 312 312 312 311 310 310 301 294 298 297 293 303 303 304 307 307 302 305 313 305 303 298 300 297 294 298 300 299 297 295 293 292 296 298 295
309 310 310 310 310 311 312 312 312 313 314 312 312 312 311 311 310 299 297 299 301 298 293 300 303 303 304 306 301 302 309 306 301 298 297 295 298 302 300 297 296 294 292 292 293 296 295
305 306 307 310 310 310 311 311 311 312 313 313 312 311 311 310 298 297 294 300 300 298 290 294 299 302 304 305 300 307 310 307 301 299 298 297 301 300 297 297 297 291 298 297 295 292 287
304 305 306 307 308 309 310 310 311 311 311 312 312 312 311 308 296 295 297 301 300 297 277 294 299 307 303 301 301 302 308 305 300 300 299 298 297 297 296 298 298 296 299 296 295 290 287
305 305 306 306 306 307 308 309 309 310 310 311 312 312 310 300 296 298 301 300 298 289 280 292 299 298 297 299 300 301 303 306 305 299 298 300 302 300 300 301 300 301 295 293 291 288 281
306 306 307 306 306 306 307 307 309 309 309 310 311 311 308 302 293 299 299 296 288 282 293 291 293 297 297 295 297 299 298 297 295 291 292 296 296 299 302 297 296 294 289 283 281 280 282
308 308 308 307 306 306 306 306 308 308 308 309 309 310 308 303 301 300 295 290 281 290 290 296 294 295 293 296 296 296 295 294 297 296 292 291 290 297 300 298 295 291 290 284 279 278 282
309 309 309 309 307 307 306 305 306 307 307 307 307 304 304 303 302 299 290 283 286 289 294 293 293 291 291 295 295 295 294 295 296 297 294 290 291 298 300 300 299 292 288 291 286 286 283
309 309 309 309 309 307 307 306 306 307 307 307 301 300 301 304 304 294 285 285 289 296 296 295 289 291 289 291 292 293 293 297 296 299 299 294 289 297 299 299 297 296 296 287 285 280 279
309 309 308 308 309 308 307 306 306 306 306 306 299 293 302 305 302 291 280 283 289 298 297 294 292 290 291 291 293 291 292 297 300 298 300 295 293 292 297 295 293 292 291 291 288 286 281
309 309 309 308 308 308 308 306 305 305 305 303 297 287 301 303 288 288 283 286 293 293 298 295 294 293 291 292 291 292 293 296 301 300 295 296 292 289 294 298 301 297 294 294 287 285 287
308 308 308 308 307 307 307 306 305 305 304 300 292 292 300 298 284 284 286 288 289 290 294 293 292 294 294 292 289 293 294 299 300 300 295 296 289 285 287 296 299 296 298 295 293 291 289
307 308 308 307 307 307 307 305 305 305 305 300 287 284 290 293 292 286 284 285 285 291 291 293 292 294 292 291 292 291 294 298 299 300 309 303 291 290 288 289 297 294 298 298 294 288 290
307 307 308 307 307 306 305 305 305 305 304 300 288 286 290 284 287 286 284 284 285 284 291 292 290 292 290 287 289 289 292 294 298 303 300 296 289 291 292 295 298 296 297 298 294 294 292
307 307 307 307 306 306 306 306 305 305 304 297 286 287 290 286 289 288 287 283 284 287 286 288 288 292 290 288 289 288 290 291 291 292 294 295 290 291 290 295 295 294 297 299 299 296 296
306 307 307 307 306 305 305 306 306 305 303 294 292 295 292 287 288 286 286 286 287 288 290 291 290 289 288 291 293 292 292 292 292 290 289 292 293 290 286 295 294 291 295 298 298 299 298
306 306 306 307 306 306 306 306 306 305 303 296 296 295 287 284 287 287 289 289 288 289 286 292 291 288 293 298 296 293 290 291 292 290 292 292 293 292 290 293 284 294 301 302 301 301 300
306 306 306 306 305 305 305 304 305 306 303 297 299 295 288 285 288 288 290 289 290 290 289 291 294 295 296 294 289 286 287 288 290 293 296 298 294 290 289 284 293 296 300 299 299 298 303
305 306 306 306 305 305 305 304 304 305 304 299 299 300 293 286 286 292 290 291 287 285 287 290 294 296 294 290 287 281 281 286 286 294 300 298 298 293 285 286 286 294 302 305 303 294 303
305 305 306 306 306 305 305 305 304 305 305 301 298 299 292 288 291 292 289 289 289 288 285 289 289 291 294 287 276 278 282 290 287 291 292 291 291 292 285 283 290 299 304 305 293 295 304
304 305 305 306 305 306 305 305 304 305 305 301 299 300 293 290 291 295 295 292 292 289 285 289 288 289 289 285 285 286 285 288 287 293 293 292 288 288 285 285 287 303 303 299 302 303 306
303 304 305 305 306 305 305 305 305 305 305 303 295 303 301 295 291 294 296 296 295 294 291 289 289 292 295 287 289 290 288 289 288 285 297 292 295 292 293 292 299 306 305 307 304 305 306
Wind_Speed
14 14 14 15 15 14 13 14 14 15 15 15 16 17 18 19 20 20 19 21 22 20 19 16 14 13 2 1 12 4 4 11 8 8 11 7 6 4 4 5 5 6 5 1 3 7 4
14 14 14 13 13 12 13 15 15 14 14 14 15 16 17 18 19 19 19 19 19 19 18 15 12 8 2 8 7 5 6 7 7 6 7 9 9 9 5 6 6 7 5 2 2 1 2
16 15 15 14 14 13 14 15 15 15 14 14 14 15 16 16 18 20 18 19 21 20 20 16 8 3 4 19 5 1 5 4 6 7 7 7 8 7 4 6 2 3 2 5 1 4 3
18 17 16 16 14 14 15 16 16 15 15 15 14 14 16 17 19 20 21 22 23 23 21 11 7 5 10 7 10 11 8 6 4 6 2 7 5 3 2 3 4 4 5 3 4 5 3
19 18 17 17 17 16 18 17 15 14 16 16 14 14 16 18 20 21 21 25 26 14 7 9 7 3 11 5 4 9 8 7 6 4 4 4 7 5 2 2 4 7 3 4 6 7 3
21 21 19 18 16 18 18 16 18 14 14 14 14 13 14 16 18 20 23 28 15 4 4 5 4 1 7 6 5 4 6 8 4 6 4 4 4 3 3 3 6 4 3 3 4 3 3
21 21 21 21 20 18 16 16 16 14 14 13 14 11 11 12 15 16 13 8 4 2 3 9 5 6 6 4 3 2 4 7 4 5 7 4 5 8 9 7 5 4 3 5 4 5 5
21 22 22 23 22 19 18 16 16 17 16 14 13 11 11 11 13 15 2 1 5 4 10 11 17 14 21 5 6 5 8 8 7 6 7 4 13 7 7 4 4 3 3 5 6 3 6
24 24 22 22 21 20 18 17 17 17 16 13 11 10 11 12 12 4 3 3 4 5 5 8 11 11 10 11 10 10 7 6 6 7 7 9 4 8 7 5 4 5 4 5 7 2 3
26 26 26 24 22 21 20 19 18 17 18 14 12 8 7 10 0 4 1 9 8 3 4 9 7 11 10 11 7 10 9 7 2 14 9 7 6 8 5 5 8 4 8 5 4 2 5
27 27 25 24 24 23 22 21 20 17 17 16 12 9 5 2 3 3 4 11 9 2 7 8 7 3 8 15 11 8 6 2 10 7 8 10 8 7 6 10 8 10 4 5 3 4 2
26 27 26 26 25 23 21 22 22 20 15 14 14 12 7 4 1 5 8 11 1 5 15 6 6 8 7 7 7 7 8 5 7 7 3 10 5 10 13 9 9 3 3 6 5 4 2
27 27 26 25 25 25 24 20 20 21 19 15 14 15 9 6 4 4 5 3 3 10 2 7 8 7 11 7 8 10 14 13 12 9 11 4 5 4 6 5 3 5 7 4 6 4 7
27 27 27 26 26 25 23 22 19 19 18 17 13 14 9 6 3 1 3 3 11 10 12 3 5 6 10 9 11 9 8 14 14 7 7 10 9 11 4 9 11 7 10 7 6 3 6
27 27 28 28 27 26 24 22 20 18 18 16 14 5 5 7 7 4 2 8 15 8 14 4 3 5 5 8 8 10 18 16 13 13 17 9 8 3 7 6 12 5 5 6 5 1 2
29 31 31 28 28 27 25 22 20 18 17 17 6 5 10 13 11 4 3 26 8 7 5 24 9 6 10 7 10 17 15 16 13 9 6 7 2 5 7 5 1 10 7 2 3 2 4
31 29 25 27 28 26 26 22 20 17 15 10 4 5 7 17 10 6 10 16 22 8 3 16 23 7 7 9 10 9 8 9 21 10 12 7 7 4 7 7 10 3 3 5 5 5 6
30 29 26 26 26 23 23 22 20 15 11 8 4 5 10 14 8 6 17 9 8 23 4 3 3 8 8 7 10 12 13 13 12 15 14 8 8 7 9 3 5 7 11 9 6 5 3
32 32 26 24 24 19 17 20 18 16 13 3 2 2 5 13 12 13 14 11 11 9 6 3 3 4 5 7 4 5 6 6 9 17 13 9 3 4 5 4 1 5 5 5 5 5 7
33 34 30 22 22 18 10 16 17 17 16 7 3 5 3 6 4 14 16 17 7 15 12 1 3 4 2 5 1 4 2 3 2 6 10 15 7 12 16 5 7 5 5 6 7 5 6
35 35 29 22 22 11 10 13 14 13 16 6 3 2 3 5 9 11 7 3 21 8 9 3 3 4 3 4 4 4 2 2 4 3 5 8 8 6 5 10 11 13 9 12 10 9 9
34 32 25 23 16 9 11 12 13 13 12 5 4 2 2 2 12 14 8 4 16 21 3 11 4 3 5 4 4 4 3 3 2 7 4 1 4 8 7 9 13 11 16 16 17 3 2
32 31 29 22 12 10 7 9 11 12 12 3 1 0 3 1 5 9 12 13 5 2 2 5 4 2 5 1 5 6 7 4 3 1 2 1 5 5 5 5 7 18 15 14 8 5 10
31 31 27 20 16 12 11 9 12 13 11 3 1 2 1 3 3 6 7 16 13 5 1 3 5 5 2 4 4 1 1 4 6 4 7 2 4 3 4 6 9 5 8 17 19 11 7
30 30 26 21 12 12 8 5 5 15 14 3 2 1 1 3 6 6 2 13 14 12 7 2 3 2 2 4 3 1 3 0 7 7 6 8 5 3 6 4 4 1 5 10 10 12 15
30 28 28 21 11 11 8 4 4 13 15 3 2 2 2 2 4 7 7 2 3 3 3 3 3 4 2 1 2 7 6 6 6 5 5 5 3 5 3 7 11 7 7 5 5 7 10
28 27 27 18 14 10 6 7 2 10 15 4 2 3 3 1 4 5 3 0 3 3 3 3 3 0 5 3 3 3 7 3 7 12 7 5 2 12 2 4 6 6 9 7 9 10 8
27 25 25 21 15 17 10 5 2 9 14 4 1 1 2 1 3 4 3 1 1 2 3 2 3 2 0 5 5 5 4 10 6 7 10 9 8 6 2 3 8 6 5 13 9 3 6
26 24 25 24 22 9 10 5 3 8 10 5 1 1 2 1 3 3 4 4 2 2 3 1 1 1 2 3 3 3 3 2 11 14 3 11 8 9 10 7 4 14 12 13 7 7 6
Wind_Direction
311 312 313 316 318 320 321 318 317 318 321 325 327 328 329 334 334 331 329 325 319 317 314 315 318 322 303 347 247 223 41 93 110 138 177 158 160 143 228 229 159 190 259 199 241 157 170
300 297 297 298 294 295 304 307 309 312 316 320 321 325 327 327 325 323 320 315 310 305 301 304 313 320 179 253 247 285 214 142 151 166 160 138 190 194 259 224 169 210 202 56 52 158 169
296 301 296 295 294 291 293 301 303 307 307 310 314 317 318 320 320 320 316 310 306 300 298 296 285 206 238 233 215 132 162 172 170 173 177 191 145 165 175 280 248 84 118 37 247 149 236
315 294 292 293 295 291 285 287 292 301 305 308 310 311 315 319 322 321 318 313 302 304 298 285 177 186 244 246 258 262 256 273 204 216 178 137 125 222 183 250 35 95 53 98 278 149 252
311 313 309 297 290 283 287 290 277 285 297 304 307 308 315 322 324 324 318 309 300 299 292 135 122 185 263 301 226 235 167 200 151 170 115 107 121 183 359 200 31 10 224 207 310 201 129
315 313 315 300 294 289 283 281 288 270 276 288 296 303 312 315 320 324 321 306 290 280 132 200 249 306 271 238 243 206 176 142 154 122 94 121 76 173 69 102 212 236 235 230 243 244 183
318 315 313 311 307 300 291 289 286 274 280 281 282 288 294 303 315 320 337 344 8 189 223 199 203 240 290 283 275 214 178 112 113 100 154 165 138 204 203 203 189 198 202 248 268 243 180
313 313 312 310 306 304 302 297 290 289 279 261 270 272 284 299 309 312 270 284 60 273 296 235 245 249 266 20 316 306 148 132 147 165 112 80 220 186 200 173 179 164 227 267 274 277 159
328 316 306 302 303 300 298 289 289 287 280 270 266 273 291 308 315 354 298 74 317 325 255 263 203 214 220 152 221 252 192 144 139 151 168 185 183 164 170 199 173 202 173 232 239 315 240
325 321 322 310 297 290 289 289 286 281 279 264 254 239 268 310 351 315 233 319 315 264 294 271 206 250 171 143 238 206 184 151 141 188 169 207 197 173 168 195 166 253 216 228 268 45 269
320 316 314 311 316 306 293 287 285 282 279 268 249 233 228 129 268 306 328 311 304 128 287 248 204 232 177 170 154 217 165 109 165 177 139 213 157 176 171 211 163 231 140 194 227 207 106
312 310 307 306 305 301 301 295 284 279 268 270 255 234 182 95 61 260 302 305 130 70 244 270 195 176 118 201 189 145 157 143 160 160 245 203 192 164 197 213 174 169 106 48 55 95 50
307 304 299 294 292 295 295 291 284 280 273 261 261 240 177 150 214 230 313 346 118 207 223 218 202 161 177 162 198 164 169 180 180 158 203 169 187 195 144 148 86 93 70 341 342 10 223
304 297 291 289 284 282 282 285 285 272 268 270 254 241 204 166 187 69 14 82 218 214 203 291 164 147 180 152 209 187 155 186 212 158 159 180 227 169 178 168 181 180 153 157 227 225 259
313 304 293 282 274 273 270 273 278 278 260 257 255 243 199 163 143 109 120 198 222 173 196 226 116 139 200 192 156 177 214 205 186 184 201 171 228 135 164 154 145 179 153 198 133 167 61
315 309 303 296 279 260 262 261 265 272 266 247 237 228 239 150 142 118 124 227 223 198 151 201 196 167 186 185 173 190 180 208 206 172 139 196 166 206 198 95 29 165 162 110 15 193 231
322 321 310 306 295 269 247 249 253 258 268 238 214 231 162 144 142 177 212 229 220 297 305 184 218 192 214 178 179 193 226 219 189 170 173 134 132 269 103 177 167 124 161 57 122 146 181
331 326 312 309 308 289 246 235 242 243 247 212 231 217 153 150 185 195 228 211 327 221 268 275 201 197 194 184 182 199 204 197 180 160 169 185 150 191 200 197 173 205 186 165 155 232 214
333 332 319 313 312 302 256 221 231 234 215 162 222 201 184 178 199 213 230 243 267 254 276 297 271 209 191 191 187 173 169 219 160 175 155 170 199 151 326 5 318 171 179 149 120 93 190
333 330 327 311 318 307 241 213 226 231 219 179 132 189 156 234 232 210 217 233 262 241 277 70 316 304 133 159 230 147 141 71 93 155 167 158 157 189 219 201 160 185 180 184 153 134 184
335 331 326 320 319 291 209 228 234 247 205 175 132 235 308 173 205 215 176 249 217 252 225 121 236 262 189 160 97 123 200 12 98 250 114 141 204 180 192 195 190 209 191 180 189 190 166
340 345 345 332 333 311 237 230 230 216 184 193 163 165 156 280 222 218 224 207 238 218 276 221 251 166 26 56 52 104 60 81 87 18 98 33 216 174 214 199 192 214 215 193 206 122 93
342 344 341 350 351 339 280 242 224 204 164 121 229 224 310 102 241 206 211 213 237 227 357 152 121 8 59 217 276 242 214 260 231 49 0 321 137 104 222 184 130 245 206 189 197 187 159
346 348 344 349 360 342 266 263 225 194 158 127 218 101 154 270 214 227 216 201 234 173 230 42 152 140 236 311 252 354 3 238 278 244 176 201 111 100 155 112 208 271 210 184 196 199 192
346 347 346 344 2 6 35 45 192 172 156 114 153 119 118 282 279 198 276 201 203 229 214 221 283 161 333 337 43 349 21 190 255 259 217 179 132 145 145 208 290 238 150 144 157 226 198
344 346 348 349 353 7 358 313 163 172 171 102 125 110 84 245 260 298 150 152 138 143 131 218 311 351 316 194 127 187 193 185 172 200 57 134 188 150 168 173 216 202 202 138 78 252 199
348 349 348 351 350 330 313 321 217 187 173 136 145 186 114 262 283 352 60 108 149 127 148 241 304 176 165 179 120 183 221 208 200 170 171 142 112 205 166 217 276 250 145 136 143 232 181
351 351 353 353 348 0 358 326 254 188 180 146 85 238 148 255 231 257 276 216 100 90 137 217 54 303 74 176 176 223 217 210 262 214 172 159 147 185 112 166 240 167 101 156 201 216 195
350 350 351 352 358 322 345 2 350 153 164 116 111 39 25 272 269 306 279 260 255 174 152 111 197 219 226 175 200 183 291 288 200 236 230 192 182 184 186 202 224 181 170 209 161 162 193